Погода Пограничное

Погода Пограничное : погода сейчас, прогноз погоды и архив. Всё, что Вы хотите узнать о погоде Пограничное!

Хотите узнать прогноз погоды Пограничное? Тогда Вам сюда: Погода Пограничное

Поиск расширенной информации на нашем сайте:

Другие новости

Новости СМИ2

Главная страница сайта

Новости сайта

03.07.2017

Напоминаем, что на нашем специализированном сайте Метеоцентр.Азия вы можете получить высокодетализированные автоматические прогнозы погоды по пунктам России, СНГ и мира в авиационном формате (включающие направление и скорость ветра, видимость, явления погоды, количество и форму облачности, нижнюю и верхнюю границу облачности).

Рекомендуем: ремонт стиральной машины бош макс

Погода Пограничное - сегодня

Время (UTC), дата Ветер
(°,м/с) 
Видим.   Явления Облачность Т
(°С)
Тd
(°С)
f(%) Тe
(°С)
Pmin
(гПа)
dP
(гПа)
Po
(мм)
O2
(г/м3)
Тmin Tmax R s Состояние
почвы
12 08.06.18 350 (С) 2-4{05}  20000 м  {туман}  10/10 300 м 
[St]
+2.2 +1.9 98 +2  1015.4  0.1  761  304           
21 08.06.18 280 (З) 1-3{04}  2000 м    ясно 
+5.2 +1.9 79 +6  1012.4  -0.7  758  300  -1.6        сухая 
15 09.06.18 220 (ЮЗ) 1-2{03}  20000 м    ясно 
+1 -0.6 89 +2  1008.2  -1.3  755  303           
21 09.06.18 070 (В) 1-2{03}  20000 м    8/5 600 м средняя, верхняя 
[Sc|Ac trans|Ci fib]
+8.4 +0.5 57 +9  1005.5  -1.2  753  294  +0.3        сухая 
18 10.06.18 тихо () {03}  20000 м    10/10 600 м 
[Sc]
+4.7 +3.5 92 +5  1012.1  1.2  758  300           
21 10.06.18 тихо () {04}  20000 м    10/10 600 м 
[Sc]
+5.7 +4.2 90 +6  1013.4  1.3  759  299  +3.3        сухая 
21 11.06.18 140 (ЮВ) 3-4{04}  0500 м  туман  ясно 
+2.8 +2.5 98 +1  1016.8  0.6  762  303  +2.8        влажная 
00 12.06.18 120 (ЮВ) 3-5{06}  20000 м  {туман}  10/0 верхняя 
[Ci fib]
+4.5 +3.7 95 +3  1016.8  0.1  762  301           
21 12.06.18 090 (В) 1-2{02}  20000 м    10/10 200 м 
[St]
+3.6 +3.3 98 +4  1017.5  1.1  762  303  +3        сухая 
00 13.06.18 030 (СВ) 2-5{05}  4000 м  дымка  10/10 200 м 
[St]
+5.1 +3.4 89 +5  1017.8  0.3  763  301           
12 13.06.18 360 (С) 2-4{05}  4000 м  морось  10/10 200 м 
[St]
+3.8 +3.4 97 +3  1018.8  763  303           
21 13.06.18 330 (СЗ) 3-5{05}  10 км    10/10 200 м 
[St]
+3.9 +3 94 +3  1020.1  764  303  +3.1    0.4    влажная 
15 14.06.18 тихо () {03}  20000 м    10/10 300 м 
[St]
+3.3 +1.7 89 +3  1023.2  0.1  767  305           
18 14.06.18 тихо () {02}  20000 м    10/10 300 м 
[St]
+2.9 +1.5 90 +3  1023.2  767  305           
21 14.06.18 110 (В) 1-2{02}  20000 м    10/10 200 м 
[St]
+3 +1.4 89 +4  1023.8  0.6  767  306  +2.7        сухая 
15 15.06.18 тихо () {02}  20000 м    3/0 верхняя 
[Ci fib]
-0.9 -1.3 97 -1  1018.7  -1.8  763  309           
21 15.06.18 тихо () {02}  20000 м    10/0 верхняя 
[Ci fib]
+6 +5 93 +6  1017.1  -0.8  762  300  -1.3        сухая 
12 16.06.18 230 (ЮЗ) 1-1{03}  20000 м    ясно 
+3.8 +2.2 89 +5  1012.8  0.3  759  301           
15 16.06.18 тихо () {02}  20000 м    ясно 
+1.4 +0.7 95 +1  1012.9  0.1  759  304           
21 16.06.18 200 (Ю) 1-2{04}  20000 м    1/0 верхняя 
[Ci fib]
+8.4 +1 60 +9  1012.5  759  296  -0.2        сухая 
12 17.06.18 тихо () {06}  20000 м    10/10 600 м 
[Sc]
+7.7 +4.8 82 +8  1009.8  0.8  757  296           
21 17.06.18 тихо () {05}  20000 м  {дождь}  10/10 600 м 
[Sc]
+3.6 +3.2 97 +4  1009.5  -0.5  756  300  +2.3    0.9    влажная 
00 18.06.18 140 (ЮВ) 2-4{07}  20000 м  {дождь}  10/10 300 м 
[Cu Sc]
+5.1 +4 93 +5  1009.4  0.1  756  299           
15 18.06.18 тихо () {02}  20000 м    ясно 
+1.9 +1.4 96 +2  1008.7  -0.2  756  302           
21 18.06.18 050 (СВ) 1-2{03}  20000 м    10/3 1000 м средняя, верхняя 
[Sc|Ac trans|Ci fib]
+4.1 +2.7 91 +5  1008.3  -0.2  755  299  +1.4         
Время (UTC), дата Ветер
(°,м/с) 
Видим.   Явления Облачность Т
(°С)
Тd
(°С)
f(%) Тe
(°С)
Pmin
(гПа)
dP
(гПа)
Po
(мм)
O2
(г/м3)
Тmin Tmax R s Состояние
почвы

Для получения пояснительной информации подведите курсор к названию столбца.

ПОГОДА Пограничное - архив

Всё, что Вы хотите узнать о погоде Пограничное - удобно и подробно!

Выберите нужную дату (начиная с 1 января 2015* года) и нажмите кнопку "Найти".
Будут отображены архивные сводки погоды по пункту Пограничное, начиная с указанной даты.


Отображать данные в формате CSV (для использования в таблицах Excel)


Внимание! Наш архив погоды предназначен исключительно для личного некоммерческого использования в познавательных целях. Если Вам необходимы официальные справки о состоянии погоды (для производственных, юридических, коммерческих и т.п. целей), обращайтесь в органы Росгидромета.

*Примечание: данная дата относится к архиву по метеостанциям СССР (Россия, СНГ, Балтия).
Архив по метеостанциям Зарубежной Европы и Азии (кроме Китая) хранится 10 дней, по другим регионам земного шара (Китай, Африка, Америка, Австралия, Океания) - 1 день.

Пограничное - район местоположения метеостанции


Название, широта, долгота, высота метеостанции:
Пограничное 50.4°ш. 143.8°д. 8 м над ур. моря [Российская Федерация]

Дополнительная информация

В oтличие oт бoльшинства пoгoдных сайтoв мы публикуем пoдрoбную метеoинфoрмацию в детальнoм прoфессиoнальнoм фoрмате.

Характеристики температуры и влажнoсти вoздуха измеряются на высoте 2 м в тени вдали oт зданий и деревьев.
Скoрoсть ветра измеряется на высoте 10 м (на урoвне рoста челoвека скoрoсть ветра ниже в 1.5-2 раза). Если метеoстанция нахoдится в гoрoде или в лесу, тo скoрoсть ветра занижена на 2-4 м/с пo сравнению с oткрытым местoм. Скoрoсть ветра над акватoриями крупных рек и oзёр, а также на вершинах хoлмoв на 2-5 м/с выше, чем в oбычных услoвиях.
Атмoсфернoе давление в разных тoчках местнoсти мoжет значительнo oтличаться oт давления на метеoстанции, в зависимoсти oт услoвий рельефа (при пoдъёме на 10 м давление пoнижается примернo на 1 мм рт.ст.).